Time,TemperatureF,DewpointF,PressureIn,WindDirection,WindDirectionDegrees,WindSpeedMPH,WindSpeedGustMPH,Humidity,HourlyPrecipIn,Conditions,Clouds,dailyrainin,SolarRadiationWatts/m^2,SoftwareType,DateUTC
2013-07-04 00:02:00,68.8,59.8,29.91,SE,135,2.0,-999.0,73,0.00,,,0.00,0,Wunderground v.1.15,2013-07-04 05:02:00,
2013-07-04 00:07:00,68.8,59.8,29.91,SE,135,2.0,-999.0,73,0.00,,,0.00,0,Wunderground v.1.15,2013-07-04 05:07:00,
2013-07-04 00:12:00,68.9,59.9,29.91,SSE,158,2.0,-999.0,73,0.00,,,0.00,0,Wunderground v.1.15,2013-07-04 05:12:00,
2013-07-04 00:17:00,68.8,59.8,29.91,SSE,158,2.0,-999.0,73,0.00,,,0.00,0,Wunderground v.1.15,2013-07-04 05:17:00,
2013-07-04 00:22:00,68.6,59.6,29.91,SSE,158,3.0,-999.0,73,0.00,,,0.00,0,Wunderground v.1.15,2013-07-04 05:22:00,
2013-07-04 00:27:00,68.5,59.9,29.91,SSE,158,4.0,-999.0,74,0.00,,,0.00,0,Wunderground v.1.15,2013-07-04 05:27:00,
2013-07-04 00:32:00,68.5,59.5,29.91,SSE,158,6.0,-999.0,73,0.00,,,0.00,0,Wunderground v.1.15,2013-07-04 05:32:00,
2013-07-04 00:37:00,68.3,59.7,29.91,SSE,158,5.0,-999.0,74,0.00,,,0.00,0,Wunderground v.1.15,2013-07-04 05:37:00,
2013-07-04 00:42:00,68.0,59.8,29.91,SSE,158,5.0,-999.0,75,0.00,,,0.00,0,Wunderground v.1.15,2013-07-04 05:42:00,
2013-07-04 00:47:00,67.6,59.4,29.91,SSE,158,6.0,-999.0,75,0.00,,,0.00,0,Wunderground v.1.15,2013-07-04 05:47:00,
2013-07-04 00:52:00,67.6,59.0,29.91,SSE,158,7.0,-999.0,74,0.00,,,0.00,0,Wunderground v.1.15,2013-07-04 05:52:00,
2013-07-04 00:57:00,67.4,58.8,29.91,SSE,158,5.0,-999.0,74,0.00,,,0.00,0,Wunderground v.1.15,2013-07-04 05:57:00,
2013-07-04 01:02:00,67.1,58.5,29.91,SSE,158,6.0,-999.0,74,0.00,,,0.00,0,Wunderground v.1.15,2013-07-04 06:02:00,
2013-07-04 01:07:00,66.9,58.7,29.91,SSE,158,5.0,-999.0,75,0.00,,,0.00,0,Wunderground v.1.15,2013-07-04 06:07:00,
2013-07-04 01:12:00,66.7,58.1,29.91,SSE,158,6.0,-999.0,74,0.00,,,0.00,0,Wunderground v.1.15,2013-07-04 06:12:00,
2013-07-04 01:17:00,66.5,58.3,29.91,SSE,158,5.0,-999.0,75,0.00,,,0.00,0,Wunderground v.1.15,2013-07-04 06:17:00,
2013-07-04 01:22:00,66.3,58.1,29.91,SSE,158,6.0,-999.0,75,0.00,,,0.00,0,Wunderground v.1.15,2013-07-04 06:22:00,
2013-07-04 01:27:00,66.2,58.0,29.91,SSE,158,5.0,-999.0,75,0.00,,,0.00,0,Wunderground v.1.15,2013-07-04 06:27:00,
2013-07-04 01:32:00,66.0,57.5,29.91,SSE,158,6.0,-999.0,74,0.00,,,0.00,0,Wunderground v.1.15,2013-07-04 06:32:00,
2013-07-04 01:37:00,66.1,57.6,29.91,SSE,158,7.0,-999.0,74,0.00,,,0.00,0,Wunderground v.1.15,2013-07-04 06:37:00,
2013-07-04 01:42:00,66.1,57.2,29.91,SSE,158,8.0,-999.0,73,0.00,,,0.00,0,Wunderground v.1.15,2013-07-04 06:42:00,
2013-07-04 01:47:00,66.2,57.3,29.91,SSE,158,7.0,-999.0,73,0.00,,,0.00,0,Wunderground v.1.15,2013-07-04 06:47:00,
2013-07-04 01:52:00,66.1,57.2,29.91,SSE,158,6.0,-999.0,73,0.00,,,0.00,0,Wunderground v.1.15,2013-07-04 06:52:00,
2013-07-04 01:57:00,65.9,57.0,29.91,SSE,158,7.0,-999.0,73,0.00,,,0.00,0,Wunderground v.1.15,2013-07-04 06:57:00,
2013-07-04 02:02:00,65.8,56.9,29.91,SSE,158,8.0,-999.0,73,0.00,,,0.00,0,Wunderground v.1.15,2013-07-04 07:02:00,
2013-07-04 02:07:00,65.8,56.9,29.91,SSE,158,8.0,-999.0,73,0.00,,,0.00,0,Wunderground v.1.15,2013-07-04 07:07:00,
2013-07-04 02:12:00,65.9,56.6,29.91,SSE,158,8.0,-999.0,72,0.00,,,0.00,0,Wunderground v.1.15,2013-07-04 07:12:00,
2013-07-04 02:17:00,66.0,56.7,29.91,SSE,158,7.0,-999.0,72,0.00,,,0.00,0,Wunderground v.1.15,2013-07-04 07:17:00,
2013-07-04 02:22:00,65.9,56.6,29.91,SSE,158,7.0,-999.0,72,0.00,,,0.00,0,Wunderground v.1.15,2013-07-04 07:22:00,
2013-07-04 02:27:00,65.8,56.5,29.91,SSE,158,7.0,-999.0,72,0.00,,,0.00,0,Wunderground v.1.15,2013-07-04 07:27:00,
2013-07-04 02:32:00,65.6,56.7,29.91,SSE,158,7.0,-999.0,73,0.00,,,0.00,0,Wunderground v.1.15,2013-07-04 07:32:00,
2013-07-04 02:37:00,65.3,56.8,29.92,SSE,158,6.0,-999.0,74,0.00,,,0.00,0,Wunderground v.1.15,2013-07-04 07:37:00,
2013-07-04 02:42:00,64.9,56.8,29.91,SSE,158,6.0,-999.0,75,0.00,,,0.00,0,Wunderground v.1.15,2013-07-04 07:42:00,
2013-07-04 02:47:00,64.6,56.5,29.91,SSE,158,6.0,-999.0,75,0.00,,,0.00,0,Wunderground v.1.15,2013-07-04 07:47:00,
2013-07-04 02:52:00,64.3,56.2,29.91,SSE,158,7.0,-999.0,75,0.00,,,0.00,0,Wunderground v.1.15,2013-07-04 07:52:00,
2013-07-04 02:57:00,64.4,56.3,29.91,SSE,158,7.0,-999.0,75,0.00,,,0.00,0,Wunderground v.1.15,2013-07-04 07:57:00,
2013-07-04 03:02:00,64.3,56.2,29.91,SSE,158,6.0,-999.0,75,0.00,,,0.00,0,Wunderground v.1.15,2013-07-04 08:02:00,
2013-07-04 03:07:00,64.1,56.4,29.91,SSE,158,6.0,-999.0,76,0.00,,,0.00,0,Wunderground v.1.15,2013-07-04 08:07:00,
2013-07-04 03:12:00,64.0,56.3,29.91,SSE,158,6.0,-999.0,76,0.00,,,0.00,0,Wunderground v.1.15,2013-07-04 08:12:00,
2013-07-04 03:17:00,63.9,56.2,29.91,SSE,158,7.0,-999.0,76,0.00,,,0.00,0,Wunderground v.1.15,2013-07-04 08:17:00,
2013-07-04 03:22:00,63.9,56.2,29.91,SSE,158,6.0,-999.0,76,0.00,,,0.00,0,Wunderground v.1.15,2013-07-04 08:22:00,
2013-07-04 03:27:00,63.7,56.4,29.91,SSE,158,6.0,-999.0,77,0.00,,,0.00,0,Wunderground v.1.15,2013-07-04 08:27:00,
2013-07-04 03:32:00,63.7,56.4,29.91,SSE,158,7.0,-999.0,77,0.00,,,0.00,0,Wunderground v.1.15,2013-07-04 08:32:00,
2013-07-04 03:37:00,63.8,56.1,29.91,SSE,158,7.0,-999.0,76,0.00,,,0.00,0,Wunderground v.1.15,2013-07-04 08:37:00,
2013-07-04 03:42:00,63.7,56.4,29.91,SSE,158,7.0,-999.0,77,0.00,,,0.00,0,Wunderground v.1.15,2013-07-04 08:42:00,
2013-07-04 03:47:00,63.6,56.3,29.91,SSE,158,6.0,-999.0,77,0.00,,,0.00,0,Wunderground v.1.15,2013-07-04 08:47:00,
2013-07-04 03:52:00,63.5,56.2,29.91,SSE,158,7.0,-999.0,77,0.00,,,0.00,0,Wunderground v.1.15,2013-07-04 08:52:00,
2013-07-04 03:57:00,63.6,56.3,29.91,SSE,158,6.0,-999.0,77,0.00,,,0.00,0,Wunderground v.1.15,2013-07-04 08:57:00,
2013-07-04 04:02:00,63.5,56.5,29.91,SSE,158,6.0,-999.0,78,0.00,,,0.00,0,Wunderground v.1.15,2013-07-04 09:02:00,
2013-07-04 04:07:00,63.4,56.4,29.91,SSE,158,7.0,-999.0,78,0.00,,,0.00,0,Wunderground v.1.15,2013-07-04 09:07:00,
2013-07-04 04:12:00,63.3,56.3,29.91,SSE,158,7.0,-999.0,78,0.00,,,0.00,0,Wunderground v.1.15,2013-07-04 09:12:00,
2013-07-04 04:17:00,63.4,56.4,29.91,South,180,8.0,-999.0,78,0.00,,,0.00,0,Wunderground v.1.15,2013-07-04 09:17:00,
2013-07-04 04:22:00,63.6,56.3,29.91,South,180,7.0,-999.0,77,0.00,,,0.00,0,Wunderground v.1.15,2013-07-04 09:22:00,
2013-07-04 04:27:00,63.8,56.4,29.91,South,180,7.0,-999.0,77,0.00,,,0.00,0,Wunderground v.1.15,2013-07-04 09:27:00,
2013-07-04 04:32:00,63.9,56.5,29.91,South,180,6.0,-999.0,77,0.00,,,0.00,0,Wunderground v.1.15,2013-07-04 09:32:00,
2013-07-04 04:37:00,63.8,56.4,29.91,SSE,158,6.0,-999.0,77,0.00,,,0.00,0,Wunderground v.1.15,2013-07-04 09:37:00,
2013-07-04 04:42:00,63.7,56.4,29.91,SSE,158,5.0,-999.0,77,0.00,,,0.00,0,Wunderground v.1.15,2013-07-04 09:42:00,
2013-07-04 04:47:00,63.7,56.4,29.91,South,180,5.0,-999.0,77,0.00,,,0.00,0,Wunderground v.1.15,2013-07-04 09:47:00,
2013-07-04 04:52:00,63.6,56.3,29.91,SSE,158,5.0,-999.0,77,0.00,,,0.00,0,Wunderground v.1.15,2013-07-04 09:52:00,
2013-07-04 04:57:00,63.7,56.0,29.91,SSE,158,6.0,-999.0,76,0.00,,,0.00,0,Wunderground v.1.15,2013-07-04 09:57:00,
2013-07-04 05:02:00,63.8,56.4,29.91,SSE,158,5.0,-999.0,77,0.00,,,0.00,0,Wunderground v.1.15,2013-07-04 10:02:00,
2013-07-04 05:07:00,63.5,56.2,29.91,SSE,158,5.0,-999.0,77,0.00,,,0.00,0,Wunderground v.1.15,2013-07-04 10:07:00,
2013-07-04 05:12:00,63.2,56.2,29.91,SSE,158,5.0,-999.0,78,0.00,,,0.00,0,Wunderground v.1.15,2013-07-04 10:12:00,
2013-07-04 05:17:00,63.0,56.0,29.91,SSE,158,6.0,-999.0,78,0.00,,,0.00,0,Wunderground v.1.15,2013-07-04 10:17:00,
2013-07-04 05:22:00,62.9,55.9,29.91,SSE,158,4.0,-999.0,78,0.00,,,0.00,0,Wunderground v.1.15,2013-07-04 10:22:00,
2013-07-04 05:27:00,62.7,56.1,29.91,SE,135,3.0,-999.0,79,0.00,,,0.00,0,Wunderground v.1.15,2013-07-04 10:27:00,
2013-07-04 05:32:00,62.5,56.2,29.91,SSE,158,2.0,-999.0,80,0.00,,,0.00,0,Wunderground v.1.15,2013-07-04 10:32:00,
2013-07-04 05:37:00,62.1,55.9,29.91,SE,135,1.0,-999.0,80,0.00,,,0.00,0,Wunderground v.1.15,2013-07-04 10:37:00,
2013-07-04 05:42:00,61.8,55.9,29.91,SSE,158,1.0,-999.0,81,0.00,,,0.00,0,Wunderground v.1.15,2013-07-04 10:42:00,
2013-07-04 05:47:00,61.7,55.8,29.91,SSE,158,0.0,-999.0,81,0.00,,,0.00,0,Wunderground v.1.15,2013-07-04 10:47:00,
2013-07-04 05:52:00,61.7,55.8,29.92,SE,135,1.0,-999.0,81,0.00,,,0.00,1,Wunderground v.1.15,2013-07-04 10:52:00,
2013-07-04 05:57:00,61.5,56.0,29.92,ESE,113,0.0,-999.0,82,0.00,,,0.00,5,Wunderground v.1.15,2013-07-04 10:57:00,
2013-07-04 06:02:00,61.3,55.8,29.92,SE,135,0.0,-999.0,82,0.00,,,0.00,6,Wunderground v.1.15,2013-07-04 11:02:00,
2013-07-04 06:07:00,61.2,55.7,29.92,SSE,158,0.0,-999.0,82,0.00,,,0.00,9,Wunderground v.1.15,2013-07-04 11:07:00,
2013-07-04 06:12:00,61.1,55.6,29.92,SSE,158,1.0,-999.0,82,0.00,,,0.00,12,Wunderground v.1.15,2013-07-04 11:12:00,
2013-07-04 06:17:00,61.2,55.7,29.92,SE,135,1.0,-999.0,82,0.00,,,0.00,15,Wunderground v.1.15,2013-07-04 11:17:00,
2013-07-04 06:22:00,61.3,55.8,29.92,SSE,158,1.0,-999.0,82,0.00,,,0.00,19,Wunderground v.1.15,2013-07-04 11:22:00,
2013-07-04 06:27:00,61.3,55.8,29.92,SSE,158,2.0,-999.0,82,0.00,,,0.00,22,Wunderground v.1.15,2013-07-04 11:27:00,
2013-07-04 06:32:00,61.4,55.9,29.92,SSE,158,2.0,-999.0,82,0.00,,,0.00,25,Wunderground v.1.15,2013-07-04 11:32:00,
2013-07-04 06:37:00,61.3,55.8,29.92,SSE,158,2.0,-999.0,82,0.00,,,0.00,28,Wunderground v.1.15,2013-07-04 11:37:00,
2013-07-04 06:42:00,61.3,56.1,29.92,SSE,158,1.0,-999.0,83,0.00,,,0.00,32,Wunderground v.1.15,2013-07-04 11:42:00,
2013-07-04 06:47:00,61.0,56.1,29.92,South,180,1.0,-999.0,84,0.00,,,0.00,35,Wunderground v.1.15,2013-07-04 11:47:00,
2013-07-04 06:52:00,60.9,56.0,29.92,South,180,1.0,-999.0,84,0.00,,,0.00,38,Wunderground v.1.15,2013-07-04 11:52:00,
2013-07-04 06:57:00,61.2,56.0,29.92,SSE,158,1.0,-999.0,83,0.00,,,0.00,40,Wunderground v.1.15,2013-07-04 11:57:00,
2013-07-04 07:02:00,61.7,56.1,29.92,SSE,158,1.0,-999.0,82,0.00,,,0.00,43,Wunderground v.1.15,2013-07-04 12:02:00,
2013-07-04 07:07:00,62.0,56.4,29.92,South,180,1.0,-999.0,82,0.00,,,0.00,45,Wunderground v.1.15,2013-07-04 12:07:00,
2013-07-04 07:12:00,62.2,56.3,29.92,South,180,0.0,-999.0,81,0.00,,,0.00,48,Wunderground v.1.15,2013-07-04 12:12:00,
2013-07-04 07:17:00,62.3,56.7,29.92,SSE,158,1.0,-999.0,82,0.00,,,0.00,50,Wunderground v.1.15,2013-07-04 12:17:00,
2013-07-04 07:22:00,62.4,56.8,29.92,SSE,158,2.0,-999.0,82,0.00,,,0.00,56,Wunderground v.1.15,2013-07-04 12:22:00,
2013-07-04 07:27:00,62.6,57.0,29.92,SSE,158,2.0,-999.0,82,0.00,,,0.00,57,Wunderground v.1.15,2013-07-04 12:27:00,
2013-07-04 07:32:00,63.0,57.1,29.92,SSE,158,3.0,-999.0,81,0.00,,,0.00,63,Wunderground v.1.15,2013-07-04 12:32:00,
2013-07-04 07:37:00,63.3,57.4,29.92,SSE,158,3.0,-999.0,81,0.00,,,0.00,76,Wunderground v.1.15,2013-07-04 12:37:00,
2013-07-04 07:42:00,63.3,57.4,29.93,SSE,158,3.0,-999.0,81,0.00,,,0.00,182,Wunderground v.1.15,2013-07-04 12:42:00,
2013-07-04 07:47:00,63.3,57.4,29.93,South,180,3.0,-999.0,81,0.00,,,0.00,225,Wunderground v.1.15,2013-07-04 12:47:00,
2013-07-04 07:52:00,63.4,57.5,29.93,SSE,158,3.0,-999.0,81,0.00,,,0.00,240,Wunderground v.1.15,2013-07-04 12:52:00,
2013-07-04 07:57:00,63.5,57.2,29.93,SSE,158,3.0,-999.0,80,0.00,,,0.00,256,Wunderground v.1.15,2013-07-04 12:57:00,
2013-07-04 08:02:00,63.8,57.2,29.93,South,180,3.0,-999.0,79,0.00,,,0.00,271,Wunderground v.1.15,2013-07-04 13:02:00,
2013-07-04 08:07:00,64.2,57.2,29.93,SSE,158,4.0,-999.0,78,0.00,,,0.00,287,Wunderground v.1.15,2013-07-04 13:07:00,
2013-07-04 08:12:00,64.4,58.4,29.93,SSE,158,3.0,-999.0,81,0.00,,,0.00,304,Wunderground v.1.15,2013-07-04 13:12:00,
2013-07-04 08:17:00,64.3,58.0,29.93,South,180,4.0,-999.0,80,0.00,,,0.00,320,Wunderground v.1.15,2013-07-04 13:17:00,
2013-07-04 08:22:00,64.7,58.0,29.93,SSE,158,4.0,-999.0,79,0.00,,,0.00,335,Wunderground v.1.15,2013-07-04 13:22:00,
2013-07-04 08:27:00,65.1,58.1,29.93,South,180,5.0,-999.0,78,0.00,,,0.00,343,Wunderground v.1.15,2013-07-04 13:27:00,
2013-07-04 08:32:00,65.5,58.5,29.93,SSE,158,4.0,-999.0,78,0.00,,,0.00,354,Wunderground v.1.15,2013-07-04 13:32:00,
2013-07-04 08:37:00,65.9,58.8,29.93,SSE,158,4.0,-999.0,78,0.00,,,0.00,383,Wunderground v.1.15,2013-07-04 13:37:00,
2013-07-04 08:42:00,66.3,58.9,29.93,SSE,158,4.0,-999.0,77,0.00,,,0.00,399,Wunderground v.1.15,2013-07-04 13:42:00,
2013-07-04 08:47:00,66.7,59.3,29.93,SSE,158,5.0,-999.0,77,0.00,,,0.00,414,Wunderground v.1.15,2013-07-04 13:47:00,
2013-07-04 08:52:00,67.0,59.5,29.93,SSE,158,5.0,-999.0,77,0.00,,,0.00,430,Wunderground v.1.15,2013-07-04 13:52:00,
2013-07-04 08:57:00,67.3,59.1,29.93,SSE,158,5.0,-999.0,75,0.00,,,0.00,446,Wunderground v.1.15,2013-07-04 13:57:00,
2013-07-04 09:02:00,67.9,59.3,29.93,SSE,158,5.0,-999.0,74,0.00,,,0.00,461,Wunderground v.1.15,2013-07-04 14:02:00,
2013-07-04 09:07:00,68.6,59.6,29.92,South,180,6.0,-999.0,73,0.00,,,0.00,475,Wunderground v.1.15,2013-07-04 14:07:00,
2013-07-04 09:12:00,68.8,59.0,29.92,South,180,7.0,-999.0,71,0.00,,,0.00,490,Wunderground v.1.15,2013-07-04 14:12:00,
2013-07-04 09:17:00,69.1,59.7,29.93,South,180,6.0,-999.0,72,0.00,,,0.00,502,Wunderground v.1.15,2013-07-04 14:17:00,
2013-07-04 09:22:00,69.4,60.4,29.93,South,180,6.0,-999.0,73,0.00,,,0.00,519,Wunderground v.1.15,2013-07-04 14:22:00,
2013-07-04 09:27:00,69.4,60.4,29.92,South,180,5.0,-999.0,73,0.00,,,0.00,533,Wunderground v.1.15,2013-07-04 14:27:00,
2013-07-04 09:32:00,69.7,60.7,29.92,SSE,158,5.0,-999.0,73,0.00,,,0.00,548,Wunderground v.1.15,2013-07-04 14:32:00,
2013-07-04 09:37:00,70.0,60.2,29.92,South,180,5.0,-999.0,71,0.00,,,0.00,563,Wunderground v.1.15,2013-07-04 14:37:00,
2013-07-04 09:42:00,70.2,60.0,29.92,SSE,158,5.0,-999.0,70,0.00,,,0.00,578,Wunderground v.1.15,2013-07-04 14:42:00,
2013-07-04 09:47:00,70.5,61.0,29.92,South,180,7.0,-999.0,72,0.00,,,0.00,593,Wunderground v.1.15,2013-07-04 14:47:00,
2013-07-04 09:52:00,70.5,61.0,29.92,South,180,5.0,-999.0,72,0.00,,,0.00,609,Wunderground v.1.15,2013-07-04 14:52:00,
2013-07-04 09:57:00,70.7,60.8,29.92,South,180,7.0,-999.0,71,0.00,,,0.00,622,Wunderground v.1.15,2013-07-04 14:57:00,
2013-07-04 10:02:00,71.4,60.7,29.92,South,180,7.0,-999.0,69,0.00,,,0.00,634,Wunderground v.1.15,2013-07-04 15:02:00,
2013-07-04 10:07:00,71.7,61.4,29.92,South,180,7.0,-999.0,70,0.00,,,0.00,647,Wunderground v.1.15,2013-07-04 15:07:00,
2013-07-04 10:12:00,71.9,61.2,29.92,SSE,158,6.0,-999.0,69,0.00,,,0.00,663,Wunderground v.1.15,2013-07-04 15:12:00,
2013-07-04 10:17:00,72.4,61.2,29.92,SSE,158,7.0,-999.0,68,0.00,,,0.00,675,Wunderground v.1.15,2013-07-04 15:17:00,
2013-07-04 10:22:00,72.8,62.0,29.92,South,180,7.0,-999.0,69,0.00,,,0.00,688,Wunderground v.1.15,2013-07-04 15:22:00,
2013-07-04 10:27:00,73.2,62.4,29.92,SSE,158,6.0,-999.0,69,0.00,,,0.00,700,Wunderground v.1.15,2013-07-04 15:27:00,
2013-07-04 10:32:00,73.5,62.3,29.92,South,180,5.0,-999.0,68,0.00,,,0.00,713,Wunderground v.1.15,2013-07-04 15:32:00,
2013-07-04 10:37:00,73.7,62.9,29.91,South,180,6.0,-999.0,69,0.00,,,0.00,725,Wunderground v.1.15,2013-07-04 15:37:00,
2013-07-04 10:42:00,73.8,62.6,29.92,South,180,7.0,-999.0,68,0.00,,,0.00,736,Wunderground v.1.15,2013-07-04 15:42:00,
2013-07-04 10:47:00,74.1,62.0,29.92,SSE,158,6.0,-999.0,66,0.00,,,0.00,747,Wunderground v.1.15,2013-07-04 15:47:00,
2013-07-04 10:52:00,74.9,61.9,29.92,SSE,158,8.0,-999.0,64,0.00,,,0.00,759,Wunderground v.1.15,2013-07-04 15:52:00,
2013-07-04 10:57:00,75.3,62.3,29.92,SSE,158,7.0,-999.0,64,0.00,,,0.00,771,Wunderground v.1.15,2013-07-04 15:57:00,
2013-07-04 11:02:00,75.8,62.3,29.92,SSE,158,7.0,-999.0,63,0.00,,,0.00,782,Wunderground v.1.15,2013-07-04 16:02:00,
2013-07-04 11:07:00,76.1,63.5,29.91,SSE,158,8.0,-999.0,65,0.00,,,0.00,793,Wunderground v.1.15,2013-07-04 16:07:00,
2013-07-04 11:12:00,75.8,62.8,29.92,SSE,158,7.0,-999.0,64,0.00,,,0.00,801,Wunderground v.1.15,2013-07-04 16:12:00,
2013-07-04 11:17:00,76.1,63.9,29.92,SSE,158,7.0,-999.0,66,0.00,,,0.00,811,Wunderground v.1.15,2013-07-04 16:17:00,
2013-07-04 11:22:00,76.3,62.3,29.92,SSE,158,8.0,-999.0,62,0.00,,,0.00,827,Wunderground v.1.15,2013-07-04 16:22:00,
2013-07-04 11:27:00,76.8,63.2,29.92,SSE,158,6.0,-999.0,63,0.00,,,0.00,826,Wunderground v.1.15,2013-07-04 16:27:00,
2013-07-04 11:32:00,76.9,62.4,29.92,SSE,158,7.0,-999.0,61,0.00,,,0.00,873,Wunderground v.1.15,2013-07-04 16:32:00,
2013-07-04 11:37:00,77.1,63.5,29.91,SSE,158,7.0,-999.0,63,0.00,,,0.00,884,Wunderground v.1.15,2013-07-04 16:37:00,
2013-07-04 11:42:00,77.7,63.2,29.91,SSE,158,9.0,-999.0,61,0.00,,,0.00,879,Wunderground v.1.15,2013-07-04 16:42:00,
2013-07-04 11:47:00,77.8,63.7,29.91,South,180,8.0,-999.0,62,0.00,,,0.00,893,Wunderground v.1.15,2013-07-04 16:47:00,
2013-07-04 11:52:00,77.9,63.4,29.91,SSE,158,7.0,-999.0,61,0.00,,,0.00,781,Wunderground v.1.15,2013-07-04 16:52:00,
2013-07-04 11:57:00,78.2,64.1,29.91,South,180,7.0,-999.0,62,0.00,,,0.00,925,Wunderground v.1.15,2013-07-04 16:57:00,
2013-07-04 12:02:00,78.4,63.8,29.91,South,180,7.0,-999.0,61,0.00,,,0.00,932,Wunderground v.1.15,2013-07-04 17:02:00,
2013-07-04 12:07:00,78.7,64.1,29.91,SSE,158,7.0,-999.0,61,0.00,,,0.00,959,Wunderground v.1.15,2013-07-04 17:07:00,
2013-07-04 12:12:00,79.1,64.5,29.91,SSE,158,6.0,-999.0,61,0.00,,,0.00,735,Wunderground v.1.15,2013-07-04 17:12:00,
2013-07-04 12:17:00,79.0,63.0,29.91,South,180,7.0,-999.0,58,0.00,,,0.00,578,Wunderground v.1.15,2013-07-04 17:17:00,
2013-07-04 12:22:00,78.3,62.3,29.91,South,180,8.0,-999.0,58,0.00,,,0.00,360,Wunderground v.1.15,2013-07-04 17:22:00,
2013-07-04 12:27:00,78.8,63.3,29.91,South,180,7.0,-999.0,59,0.00,,,0.00,1120,Wunderground v.1.15,2013-07-04 17:27:00,
2013-07-04 12:32:00,78.9,62.4,29.91,SSE,158,9.0,-999.0,57,0.00,,,0.00,413,Wunderground v.1.15,2013-07-04 17:32:00,
2013-07-04 12:37:00,78.9,61.9,29.91,SSE,158,6.0,-999.0,56,0.00,,,0.00,710,Wunderground v.1.15,2013-07-04 17:37:00,
2013-07-04 12:42:00,79.7,64.1,29.90,South,180,6.0,-999.0,59,0.00,,,0.00,1009,Wunderground v.1.15,2013-07-04 17:42:00,
2013-07-04 12:47:00,80.2,62.6,29.90,SSE,158,7.0,-999.0,55,0.00,,,0.00,948,Wunderground v.1.15,2013-07-04 17:47:00,
2013-07-04 12:52:00,80.7,65.0,29.90,SSE,158,6.0,-999.0,59,0.00,,,0.00,936,Wunderground v.1.15,2013-07-04 17:52:00,
2013-07-04 12:57:00,81.5,64.8,29.90,SSE,158,8.0,-999.0,57,0.00,,,0.00,929,Wunderground v.1.15,2013-07-04 17:57:00,
2013-07-04 13:02:00,81.1,63.9,29.90,SSE,158,8.0,-999.0,56,0.00,,,0.00,933,Wunderground v.1.15,2013-07-04 18:02:00,
2013-07-04 13:07:00,81.4,63.2,29.90,SSE,158,11.0,-999.0,54,0.00,,,0.00,941,Wunderground v.1.15,2013-07-04 18:07:00,
2013-07-04 13:12:00,81.6,63.9,29.89,SSE,158,7.0,-999.0,55,0.00,,,0.00,937,Wunderground v.1.15,2013-07-04 18:12:00,
2013-07-04 13:17:00,81.5,63.8,29.89,SSE,158,7.0,-999.0,55,0.00,,,0.00,940,Wunderground v.1.15,2013-07-04 18:17:00,
2013-07-04 13:22:00,82.0,63.2,29.89,SSE,158,5.0,-999.0,53,0.00,,,0.00,934,Wunderground v.1.15,2013-07-04 18:22:00,
2013-07-04 13:27:00,82.0,64.2,29.89,SSE,158,8.0,-999.0,55,0.00,,,0.00,936,Wunderground v.1.15,2013-07-04 18:27:00,
2013-07-04 13:32:00,82.0,64.2,29.89,SSE,158,7.0,-999.0,55,0.00,,,0.00,942,Wunderground v.1.15,2013-07-04 18:32:00,
2013-07-04 13:37:00,82.3,63.5,29.89,SSE,158,9.0,-999.0,53,0.00,,,0.00,942,Wunderground v.1.15,2013-07-04 18:37:00,
2013-07-04 13:42:00,82.0,62.1,29.89,SSE,158,8.0,-999.0,51,0.00,,,0.00,932,Wunderground v.1.15,2013-07-04 18:42:00,
2013-07-04 13:47:00,82.4,62.5,29.88,SSE,158,7.0,-999.0,51,0.00,,,0.00,940,Wunderground v.1.15,2013-07-04 18:47:00,
2013-07-04 13:52:00,82.8,61.7,29.88,SSE,158,8.0,-999.0,49,0.00,,,0.00,926,Wunderground v.1.15,2013-07-04 18:52:00,
2013-07-04 13:57:00,82.7,61.0,29.88,SSE,158,7.0,-999.0,48,0.00,,,0.00,923,Wunderground v.1.15,2013-07-04 18:57:00,
2013-07-04 14:02:00,82.7,62.7,29.88,SSE,158,8.0,-999.0,51,0.00,,,0.00,928,Wunderground v.1.15,2013-07-04 19:02:00,
2013-07-04 14:07:00,82.7,62.7,29.88,SSE,158,7.0,-999.0,51,0.00,,,0.00,921,Wunderground v.1.15,2013-07-04 19:07:00,
2013-07-04 14:12:00,83.2,62.1,29.88,SSE,158,7.0,-999.0,49,0.00,,,0.00,918,Wunderground v.1.15,2013-07-04 19:12:00,
2013-07-04 14:17:00,83.6,61.8,29.88,SSE,158,10.0,-999.0,48,0.00,,,0.00,913,Wunderground v.1.15,2013-07-04 19:17:00,
2013-07-04 14:22:00,83.8,60.8,29.88,SSE,158,8.0,-999.0,46,0.00,,,0.00,909,Wunderground v.1.15,2013-07-04 19:22:00,
2013-07-04 14:27:00,83.8,62.6,29.87,SSE,158,6.0,-999.0,49,0.00,,,0.00,903,Wunderground v.1.15,2013-07-04 19:27:00,
2013-07-04 14:32:00,83.9,60.9,29.87,SSE,158,7.0,-999.0,46,0.00,,,0.00,895,Wunderground v.1.15,2013-07-04 19:32:00,
2013-07-04 14:37:00,83.8,60.2,29.87,SSE,158,8.0,-999.0,45,0.00,,,0.00,893,Wunderground v.1.15,2013-07-04 19:37:00,
2013-07-04 14:42:00,83.7,61.9,29.87,SSE,158,9.0,-999.0,48,0.00,,,0.00,896,Wunderground v.1.15,2013-07-04 19:42:00,
2013-07-04 14:47:00,83.0,60.7,29.87,South,180,8.0,-999.0,47,0.00,,,0.00,891,Wunderground v.1.15,2013-07-04 19:47:00,
2013-07-04 14:52:00,83.7,60.1,29.87,SSE,158,8.0,-999.0,45,0.00,,,0.00,884,Wunderground v.1.15,2013-07-04 19:52:00,
2013-07-04 14:57:00,84.2,61.2,29.87,SSE,158,8.0,-999.0,46,0.00,,,0.00,881,Wunderground v.1.15,2013-07-04 19:57:00,
2013-07-04 15:02:00,84.3,61.9,29.87,South,180,9.0,-999.0,47,0.00,,,0.00,870,Wunderground v.1.15,2013-07-04 20:02:00,
2013-07-04 15:07:00,84.2,61.2,29.87,SSE,158,9.0,-999.0,46,0.00,,,0.00,863,Wunderground v.1.15,2013-07-04 20:07:00,
2013-07-04 15:12:00,84.5,61.4,29.87,SSE,158,9.0,-999.0,46,0.00,,,0.00,855,Wunderground v.1.15,2013-07-04 20:12:00,
2013-07-04 15:17:00,84.0,61.0,29.87,SSE,158,9.0,-999.0,46,0.00,,,0.00,849,Wunderground v.1.15,2013-07-04 20:17:00,
2013-07-04 15:22:00,84.0,60.4,29.87,SSE,158,10.0,-999.0,45,0.00,,,0.00,843,Wunderground v.1.15,2013-07-04 20:22:00,
2013-07-04 15:27:00,84.3,58.7,29.86,SSE,158,10.0,-999.0,42,0.00,,,0.00,840,Wunderground v.1.15,2013-07-04 20:27:00,
2013-07-04 15:32:00,84.7,59.7,29.86,SSE,158,11.0,-999.0,43,0.00,,,0.00,828,Wunderground v.1.15,2013-07-04 20:32:00,
2013-07-04 15:37:00,84.4,60.7,29.86,SSE,158,10.0,-999.0,45,0.00,,,0.00,820,Wunderground v.1.15,2013-07-04 20:37:00,
2013-07-04 15:42:00,84.6,59.6,29.86,South,180,8.0,-999.0,43,0.00,,,0.00,807,Wunderground v.1.15,2013-07-04 20:42:00,
2013-07-04 15:47:00,84.9,60.6,29.86,SSE,158,8.0,-999.0,44,0.00,,,0.00,798,Wunderground v.1.15,2013-07-04 20:47:00,
2013-07-04 15:52:00,85.0,61.3,29.86,SSE,158,9.0,-999.0,45,0.00,,,0.00,787,Wunderground v.1.15,2013-07-04 20:52:00,
2013-07-04 15:57:00,84.9,58.6,29.86,SSE,158,8.0,-999.0,41,0.00,,,0.00,777,Wunderground v.1.15,2013-07-04 20:57:00,
2013-07-04 16:02:00,84.8,58.5,29.86,SSE,158,9.0,-999.0,41,0.00,,,0.00,772,Wunderground v.1.15,2013-07-04 21:02:00,
2013-07-04 16:07:00,84.8,59.2,29.86,SSE,158,8.0,-999.0,42,0.00,,,0.00,759,Wunderground v.1.15,2013-07-04 21:07:00,
2013-07-04 16:12:00,84.7,59.7,29.86,SSE,158,6.0,-999.0,43,0.00,,,0.00,747,Wunderground v.1.15,2013-07-04 21:12:00,
2013-07-04 16:17:00,84.8,57.8,29.86,SSE,158,8.0,-999.0,40,0.00,,,0.00,740,Wunderground v.1.15,2013-07-04 21:17:00,
2013-07-04 16:22:00,84.7,59.7,29.86,SSE,158,10.0,-999.0,43,0.00,,,0.00,725,Wunderground v.1.15,2013-07-04 21:22:00,
2013-07-04 16:27:00,84.7,61.0,29.86,SSE,158,8.0,-999.0,45,0.00,,,0.00,715,Wunderground v.1.15,2013-07-04 21:27:00,
2013-07-04 16:32:00,84.9,59.2,29.86,SSE,158,9.0,-999.0,42,0.00,,,0.00,700,Wunderground v.1.15,2013-07-04 21:32:00,
2013-07-04 16:37:00,84.7,59.7,29.86,SSE,158,7.0,-999.0,43,0.00,,,0.00,686,Wunderground v.1.15,2013-07-04 21:37:00,
2013-07-04 16:42:00,84.8,59.2,29.86,SSE,158,7.0,-999.0,42,0.00,,,0.00,677,Wunderground v.1.15,2013-07-04 21:42:00,
2013-07-04 16:47:00,84.8,59.8,29.86,SSE,158,9.0,-999.0,43,0.00,,,0.00,666,Wunderground v.1.15,2013-07-04 21:47:00,
2013-07-04 16:52:00,84.9,59.9,29.85,SSE,158,10.0,-999.0,43,0.00,,,0.00,656,Wunderground v.1.15,2013-07-04 21:52:00,
2013-07-04 16:57:00,84.5,59.5,29.85,SSE,158,9.0,-999.0,43,0.00,,,0.00,641,Wunderground v.1.15,2013-07-04 21:57:00,
2013-07-04 17:02:00,84.7,59.1,29.85,SSE,158,8.0,-999.0,42,0.00,,,0.00,627,Wunderground v.1.15,2013-07-04 22:02:00,
2013-07-04 17:07:00,84.7,59.1,29.85,SSE,158,6.0,-999.0,42,0.00,,,0.00,610,Wunderground v.1.15,2013-07-04 22:07:00,
2013-07-04 17:12:00,84.7,57.7,29.85,SSE,158,9.0,-999.0,40,0.00,,,0.00,593,Wunderground v.1.15,2013-07-04 22:12:00,
2013-07-04 17:17:00,84.5,57.5,29.84,SSE,158,9.0,-999.0,40,0.00,,,0.00,586,Wunderground v.1.15,2013-07-04 22:17:00,
2013-07-04 17:22:00,84.3,58.0,29.84,SSE,158,8.0,-999.0,41,0.00,,,0.00,570,Wunderground v.1.15,2013-07-04 22:22:00,
2013-07-04 17:27:00,84.3,58.7,29.84,SSE,158,10.0,-999.0,42,0.00,,,0.00,560,Wunderground v.1.15,2013-07-04 22:27:00,
2013-07-04 17:32:00,84.3,58.0,29.84,SSE,158,9.0,-999.0,41,0.00,,,0.00,539,Wunderground v.1.15,2013-07-04 22:32:00,
2013-07-04 17:37:00,84.2,59.3,29.84,SSE,158,7.0,-999.0,43,0.00,,,0.00,513,Wunderground v.1.15,2013-07-04 22:37:00,
2013-07-04 17:42:00,84.4,58.8,29.84,SSE,158,8.0,-999.0,42,0.00,,,0.00,489,Wunderground v.1.15,2013-07-04 22:42:00,
2013-07-04 17:47:00,84.1,59.8,29.84,SSE,158,7.0,-999.0,44,0.00,,,0.00,474,Wunderground v.1.15,2013-07-04 22:47:00,
2013-07-04 17:52:00,84.0,59.7,29.84,SSE,158,6.0,-999.0,44,0.00,,,0.00,470,Wunderground v.1.15,2013-07-04 22:52:00,
2013-07-04 17:57:00,83.9,59.7,29.84,SSE,158,6.0,-999.0,44,0.00,,,0.00,465,Wunderground v.1.15,2013-07-04 22:57:00,
2013-07-04 18:02:00,83.8,58.9,29.83,SSE,158,7.0,-999.0,43,0.00,,,0.00,449,Wunderground v.1.15,2013-07-04 23:02:00,
2013-07-04 18:07:00,83.7,58.8,29.84,SSE,158,7.0,-999.0,43,0.00,,,0.00,429,Wunderground v.1.15,2013-07-04 23:07:00,
2013-07-04 18:12:00,83.5,59.9,29.84,SSE,158,9.0,-999.0,45,0.00,,,0.00,416,Wunderground v.1.15,2013-07-04 23:12:00,
2013-07-04 18:17:00,83.5,59.3,29.84,SSE,158,6.0,-999.0,44,0.00,,,0.00,404,Wunderground v.1.15,2013-07-04 23:17:00,
2013-07-04 18:22:00,83.5,59.9,29.84,SSE,158,6.0,-999.0,45,0.00,,,0.00,386,Wunderground v.1.15,2013-07-04 23:22:00,
2013-07-04 18:27:00,83.6,59.4,29.84,SSE,158,7.0,-999.0,44,0.00,,,0.00,370,Wunderground v.1.15,2013-07-04 23:27:00,
2013-07-04 18:32:00,83.5,60.5,29.84,SSE,158,6.0,-999.0,46,0.00,,,0.00,354,Wunderground v.1.15,2013-07-04 23:32:00,
2013-07-04 18:37:00,83.4,59.8,29.84,SSE,158,7.0,-999.0,45,0.00,,,0.00,340,Wunderground v.1.15,2013-07-04 23:37:00,
2013-07-04 18:42:00,83.2,60.3,29.83,SSE,158,5.0,-999.0,46,0.00,,,0.00,323,Wunderground v.1.15,2013-07-04 23:42:00,
2013-07-04 18:47:00,83.1,60.2,29.83,SSE,158,5.0,-999.0,46,0.00,,,0.00,307,Wunderground v.1.15,2013-07-04 23:47:00,
2013-07-04 18:52:00,83.0,60.1,29.83,SSE,158,5.0,-999.0,46,0.00,,,0.00,274,Wunderground v.1.15,2013-07-04 23:52:00,
2013-07-04 18:57:00,82.8,60.5,29.83,SSE,158,5.0,-999.0,47,0.00,,,0.00,242,Wunderground v.1.15,2013-07-04 23:57:00,
2013-07-04 19:02:00,82.7,59.8,29.83,SSE,158,6.0,-999.0,46,0.00,,,0.00,241,Wunderground v.1.15,2013-07-05 00:02:00,
2013-07-04 19:07:00,82.6,59.7,29.83,SSE,158,6.0,-999.0,46,0.00,,,0.00,242,Wunderground v.1.15,2013-07-05 00:07:00,
2013-07-04 19:12:00,82.4,60.1,29.83,SSE,158,5.0,-999.0,47,0.00,,,0.00,229,Wunderground v.1.15,2013-07-05 00:12:00,
2013-07-04 19:17:00,82.3,60.1,29.82,SSE,158,5.0,-999.0,47,0.00,,,0.00,222,Wunderground v.1.15,2013-07-05 00:17:00,
2013-07-04 19:22:00,82.2,60.0,29.83,SSE,158,5.0,-999.0,47,0.00,,,0.00,205,Wunderground v.1.15,2013-07-05 00:22:00,
2013-07-04 19:27:00,82.0,59.8,29.82,SSE,158,5.0,-999.0,47,0.00,,,0.00,182,Wunderground v.1.15,2013-07-05 00:27:00,
2013-07-04 19:32:00,81.9,59.7,29.82,SSE,158,5.0,-999.0,47,0.00,,,0.00,132,Wunderground v.1.15,2013-07-05 00:32:00,
2013-07-04 19:37:00,81.8,59.6,29.82,SSE,158,4.0,-999.0,47,0.00,,,0.00,72,Wunderground v.1.15,2013-07-05 00:37:00,
2013-07-04 19:42:00,81.6,60.6,29.83,SSE,158,3.0,-999.0,49,0.00,,,0.00,63,Wunderground v.1.15,2013-07-05 00:42:00,
2013-07-04 19:47:00,81.2,60.2,29.83,SSE,158,3.0,-999.0,49,0.00,,,0.00,57,Wunderground v.1.15,2013-07-05 00:47:00,
2013-07-04 19:52:00,80.9,59.9,29.83,SSE,158,3.0,-999.0,49,0.00,,,0.00,55,Wunderground v.1.15,2013-07-05 00:52:00,
2013-07-04 19:57:00,80.7,60.3,29.83,SSE,158,2.0,-999.0,50,0.00,,,0.00,52,Wunderground v.1.15,2013-07-05 00:57:00,
2013-07-04 20:02:00,80.5,60.7,29.83,SSE,158,2.0,-999.0,51,0.00,,,0.00,47,Wunderground v.1.15,2013-07-05 01:02:00,
2013-07-04 20:07:00,80.2,61.0,29.83,SE,135,2.0,-999.0,52,0.00,,,0.00,44,Wunderground v.1.15,2013-07-05 01:07:00,
2013-07-04 20:12:00,80.0,60.8,29.83,SE,135,2.0,-999.0,52,0.00,,,0.00,38,Wunderground v.1.15,2013-07-05 01:12:00,
2013-07-04 20:17:00,79.8,60.6,29.83,ESE,113,2.0,-999.0,52,0.00,,,0.00,35,Wunderground v.1.15,2013-07-05 01:17:00,
2013-07-04 20:22:00,79.6,61.0,29.82,SE,135,2.0,-999.0,53,0.00,,,0.00,31,Wunderground v.1.15,2013-07-05 01:22:00,
2013-07-04 20:27:00,79.3,61.2,29.82,SE,135,2.0,-999.0,54,0.00,,,0.00,25,Wunderground v.1.15,2013-07-05 01:27:00,
2013-07-04 20:32:00,78.9,60.8,29.82,ESE,113,1.0,-999.0,54,0.00,,,0.00,23,Wunderground v.1.15,2013-07-05 01:32:00,
2013-07-04 20:37:00,78.5,61.0,29.82,ESE,113,1.0,-999.0,55,0.00,,,0.00,22,Wunderground v.1.15,2013-07-05 01:37:00,
2013-07-04 20:42:00,78.2,61.2,29.82,ESE,113,2.0,-999.0,56,0.00,,,0.00,17,Wunderground v.1.15,2013-07-05 01:42:00,
2013-07-04 20:47:00,78.0,61.0,29.82,SE,135,2.0,-999.0,56,0.00,,,0.00,16,Wunderground v.1.15,2013-07-05 01:47:00,
2013-07-04 20:52:00,77.8,60.8,29.82,SSE,158,2.0,-999.0,56,0.00,,,0.00,13,Wunderground v.1.15,2013-07-05 01:52:00,
2013-07-04 20:57:00,77.6,60.2,29.82,ESE,113,3.0,-999.0,55,0.00,,,0.00,9,Wunderground v.1.15,2013-07-05 01:57:00,
2013-07-04 21:02:00,77.6,60.2,29.82,SSE,158,2.0,-999.0,55,0.00,,,0.00,6,Wunderground v.1.15,2013-07-05 02:02:00,
2013-07-04 21:07:00,77.5,59.5,29.82,SSE,158,3.0,-999.0,54,0.00,,,0.00,0,Wunderground v.1.15,2013-07-05 02:07:00,
2013-07-04 21:12:00,77.4,60.0,29.82,ESE,113,3.0,-999.0,55,0.00,,,0.00,0,Wunderground v.1.15,2013-07-05 02:12:00,
2013-07-04 21:17:00,77.2,59.8,29.82,SE,135,3.0,-999.0,55,0.00,,,0.00,0,Wunderground v.1.15,2013-07-05 02:17:00,
2013-07-04 21:22:00,76.9,59.5,29.82,SE,135,3.0,-999.0,55,0.00,,,0.00,0,Wunderground v.1.15,2013-07-05 02:22:00,
2013-07-04 21:27:00,76.6,59.7,29.82,ESE,113,2.0,-999.0,56,0.00,,,0.00,0,Wunderground v.1.15,2013-07-05 02:27:00,
2013-07-04 21:32:00,76.3,59.9,29.82,SE,135,2.0,-999.0,57,0.00,,,0.00,0,Wunderground v.1.15,2013-07-05 02:32:00,
2013-07-04 21:37:00,76.1,59.8,29.82,SSE,158,2.0,-999.0,57,0.00,,,0.00,0,Wunderground v.1.15,2013-07-05 02:37:00,
2013-07-04 21:42:00,75.9,60.1,29.82,SE,135,3.0,-999.0,58,0.00,,,0.00,0,Wunderground v.1.15,2013-07-05 02:42:00,
2013-07-04 21:47:00,75.7,59.4,29.82,SE,135,2.0,-999.0,57,0.00,,,0.00,0,Wunderground v.1.15,2013-07-05 02:47:00,
2013-07-04 21:52:00,75.8,59.5,29.83,SSE,158,3.0,-999.0,57,0.00,,,0.00,0,Wunderground v.1.15,2013-07-05 02:52:00,
2013-07-04 21:57:00,75.9,59.6,29.83,ESE,113,2.0,-999.0,57,0.00,,,0.00,0,Wunderground v.1.15,2013-07-05 02:57:00,
2013-07-04 22:02:00,75.7,59.9,29.83,SE,135,3.0,-999.0,58,0.00,,,0.00,0,Wunderground v.1.15,2013-07-05 03:02:00,
2013-07-04 22:07:00,75.6,59.3,29.83,SSE,158,3.0,-999.0,57,0.00,,,0.00,0,Wunderground v.1.15,2013-07-05 03:07:00,
2013-07-04 22:12:00,75.5,59.7,29.83,SE,135,3.0,-999.0,58,0.00,,,0.00,0,Wunderground v.1.15,2013-07-05 03:12:00,
2013-07-04 22:17:00,75.5,59.2,29.83,SE,135,4.0,-999.0,57,0.00,,,0.00,0,Wunderground v.1.15,2013-07-05 03:17:00,
2013-07-04 22:22:00,75.3,59.0,29.83,SSE,158,4.0,-999.0,57,0.00,,,0.00,0,Wunderground v.1.15,2013-07-05 03:22:00,
2013-07-04 22:27:00,75.2,59.4,29.83,ESE,113,3.0,-999.0,58,0.00,,,0.00,0,Wunderground v.1.15,2013-07-05 03:27:00,
2013-07-04 22:32:00,75.1,59.3,29.84,ESE,113,3.0,-999.0,58,0.00,,,0.00,0,Wunderground v.1.15,2013-07-05 03:32:00,
2013-07-04 22:37:00,74.9,59.1,29.84,SE,135,3.0,-999.0,58,0.00,,,0.00,0,Wunderground v.1.15,2013-07-05 03:37:00,
2013-07-04 22:42:00,74.8,59.0,29.83,SSE,158,3.0,-999.0,58,0.00,,,0.00,0,Wunderground v.1.15,2013-07-05 03:42:00,
2013-07-04 22:47:00,74.7,58.9,29.83,SSE,158,3.0,-999.0,58,0.00,,,0.00,0,Wunderground v.1.15,2013-07-05 03:47:00,
2013-07-04 22:52:00,74.7,58.9,29.83,ESE,113,2.0,-999.0,58,0.00,,,0.00,0,Wunderground v.1.15,2013-07-05 03:52:00,
2013-07-04 22:57:00,74.6,58.8,29.83,ESE,113,3.0,-999.0,58,0.00,,,0.00,0,Wunderground v.1.15,2013-07-05 03:57:00,
2013-07-04 23:02:00,74.4,59.1,29.83,SE,135,2.0,-999.0,59,0.00,,,0.00,0,Wunderground v.1.15,2013-07-05 04:02:00,
2013-07-04 23:07:00,74.1,59.3,29.84,SSE,158,2.0,-999.0,60,0.00,,,0.00,0,Wunderground v.1.15,2013-07-05 04:07:00,
2013-07-04 23:12:00,74.0,59.2,29.84,SE,135,3.0,-999.0,60,0.00,,,0.00,0,Wunderground v.1.15,2013-07-05 04:12:00,
2013-07-04 23:17:00,73.9,58.7,29.84,SSE,158,3.0,-999.0,59,0.00,,,0.00,0,Wunderground v.1.15,2013-07-05 04:17:00,
2013-07-04 23:22:00,73.9,58.7,29.83,SE,135,4.0,-999.0,59,0.00,,,0.00,0,Wunderground v.1.15,2013-07-05 04:22:00,
2013-07-04 23:27:00,74.0,58.8,29.83,SSE,158,3.0,-999.0,59,0.00,,,0.00,0,Wunderground v.1.15,2013-07-05 04:27:00,
2013-07-04 23:32:00,73.7,58.9,29.84,SSE,158,3.0,-999.0,60,0.00,,,0.00,0,Wunderground v.1.15,2013-07-05 04:32:00,
2013-07-04 23:37:00,73.4,58.7,29.84,SSE,158,3.0,-999.0,60,0.00,,,0.00,0,Wunderground v.1.15,2013-07-05 04:37:00,
2013-07-04 23:42:00,73.4,58.7,29.84,SSE,158,4.0,-999.0,60,0.00,,,0.00,0,Wunderground v.1.15,2013-07-05 04:42:00,
2013-07-04 23:47:00,73.4,58.7,29.84,SE,135,5.0,-999.0,60,0.00,,,0.00,0,Wunderground v.1.15,2013-07-05 04:47:00,
2013-07-04 23:52:00,73.4,58.7,29.84,SSE,158,4.0,-999.0,60,0.00,,,0.00,0,Wunderground v.1.15,2013-07-05 04:52:00,
2013-07-04 23:57:00,73.4,58.7,29.84,SSE,158,4.0,-999.0,60,0.00,,,0.00,0,Wunderground v.1.15,2013-07-05 04:57:00,